GW0140 Weather Reports


Display with metric or nautical units.
time (UTC)temp
F
wind
direction
speed
MPH
gust
MPH
rain 1hr
in
rain 24hr
in
rain mn
in
humidity
%
barometer
mb
20260506123846 51 44 13.0 17.0 0.00 0.00 0.00 80 1012.1
20260506122854 51 42 13.0 19.0 0.00 0.00 0.00 80 1012.1
20260506121912 52 37 14.0 19.0 0.00 0.00 0.00 78 1012.2
20260506115821 53 13 12.0 19.0 0.00 0.00 0.00 75 1011.9
20260506114827 53 355 11.0 18.0 0.00 0.00 0.00 76 1011.8
20260506113758 53 5 10.0 19.0 0.00 0.00 0.00 74 1011.7
20260506112753 53 20 14.0 19.0 0.00 0.00 0.00 74 1011.8
20260506111735 53 350 12.0 20.0 0.00 0.00 0.00 74 1011.6
20260506110711 53 347 13.0 20.0 0.00 0.00 0.00 75 1011.7
20260506105654 53 12 13.0 17.0 0.00 0.00 0.00 75 1011.7
20260506104708 53 0 11.0 17.0 0.00 0.00 0.00 75 1011.7
20260506102543 53 355 10.0 15.0 0.00 0.00 0.00 78 1011.7
20260506101607 52 351 11.0 15.0 0.00 0.00 0.00 78 1011.7
20260506100616 52 32 11.0 16.0 0.00 0.00 0.00 77 1011.8
20260506095544 52 355 12.0 16.0 0.00 0.00 0.00 77 1011.8
20260506094518 52 10 11.0 16.0 0.00 0.00 0.00 80 1011.7
20260506093502 52 0 12.0 17.0 0.00 0.00 0.00 79 1011.8
20260506092513 52 25 11.0 17.0 0.00 0.00 0.00 78 1011.8
20260506091512 51 13 10.0 15.0 0.00 0.00 0.00 78 1011.7
20260506090525 51 5 11.0 17.0 0.00 0.00 0.00 80 1011.6
20260506085518 51 342 12.0 17.0 0.00 0.00 0.00 79 1011.6
20260506084540 50 348 13.0 19.0 0.00 0.00 0.00 81 1011.5
20260506083545 50 336 14.0 19.0 0.00 0.00 0.00 82 1011.4
20260506081419 49 355 14.0 19.0 0.00 0.00 0.00 83 1011.5
20260506080407 49 348 13.0 17.0 0.00 0.00 0.00 84 1011.5
20260506073246 48 340 12.0 19.0 0.00 0.00 0.00 85 1011.5
20260506072305 48 355 11.0 19.0 0.00 0.00 0.00 85 1011.6
20260506071323 48 338 11.0 17.0 0.00 0.00 0.00 86 1011.4
20260506070309 48 355 11.0 17.0 0.00 0.00 0.00 87 1011.4
20260506062329 45 329 9.0 14.0 0.00 0.00 0.00 89 1011.4
20260506061341 45 328 10.0 14.0 0.00 0.00 0.00 89 1011.3
20260506060358 45 328 10.0 13.0 0.00 0.00 0.00 89 1011.3
20260506051213 44 314 8.0 13.0 0.00 0.00 0.00 88 1011.2
20260506050219 44 310 9.0 13.0 0.00 0.00 0.00 87 1011.2
20260506044144 45 325 10.0 14.0 0.00 0.00 0.00 87 1011.2
20260506043157 45 326 10.0 14.0 0.00 0.00 0.00 87 1011.2
20260506041009 45 345 11.0 14.0 0.00 0.00 0.00 88 1011.2
20260506040000 46 342 10.0 14.0 0.00 0.00 0.00 88 1011.1
20260506034943 46 347 10.0 14.0 0.00 0.00 0.00 88 1011.1
20260506032911 46 342 10.0 14.0 0.00 0.00 0.00 86 1011.4
20260506031909 46 355 9.0 13.0 0.00 0.00 0.00 86 1011.4
20260506030933 46 351 10.0 13.0 0.00 0.00 0.00 86 1011.5
20260506025952 47 355 9.0 13.0 0.00 0.00 0.00 86 1011.6
20260506025001 47 0 9.0 13.0 0.00 0.00 0.00 86 1011.5
20260506024017 47 346 9.0 12.0 0.00 0.00 0.00 85 1011.6
20260506023001 47 350 11.0 14.0 0.00 0.00 0.00 85 1011.7
20260506022003 48 349 10.0 14.0 0.00 0.00 0.00 85 1011.8
20260506020939 48 355 10.0 14.0 0.00 0.00 0.00 85 1011.8
20260506015919 48 355 8.0 14.0 0.00 0.00 0.00 86 1011.8
20260506013815 48 346 5.0 9.0 0.00 0.00 0.00 88 1011.9
20260506012830 48 330 6.0 9.0 0.00 0.00 0.00 87 1011.8
20260506011841 48 5 4.0 9.0 0.00 0.00 0.00 87 1011.8
20260506010830 48 16 5.0 11.0 0.00 0.00 0.00 87 1012.0
20260506005847 48 19 6.0 11.0 0.00 0.00 0.00 87 1011.9
20260506004907 49 12 7.0 11.0 0.00 0.00 0.00 87 1012.0
20260506003927 49 5 6.0 12.0 0.00 0.00 0.00 87 1012.1
20260506001810 48 17 6.0 12.0 0.00 0.00 0.00 87 1012.2
20260506000736 48 5 6.0 12.0 0.00 0.00 0.00 87 1012.2
20260505235730 49 5 6.0 11.0 0.00 0.00 0.00 87 1012.2
20260505234704 49 5 6.0 10.0 0.00 0.00 0.00 87 1012.2
20260505233632 49 355 6.0 12.0 0.00 0.00 0.00 86 1012.3
20260505232603 49 355 6.0 12.0 0.00 0.00 0.00 86 1012.3
20260505231548 49 19 6.0 9.0 0.00 0.00 0.00 85 1012.3
20260505230612 49 5 5.0 9.0 0.00 0.00 0.00 85 1012.4
20260505225612 49 5 5.0 9.0 0.00 0.00 0.00 85 1012.4
20260505224558 49 19 6.0 9.0 0.00 0.00 0.00 84 1012.5
20260505223531 49 19 6.0 11.0 0.00 0.00 0.00 84 1012.5
20260505222524 49 5 6.0 13.0 0.00 0.00 0.00 83 1012.5
20260505221504 50 26 6.0 13.0 0.00 0.00 0.00 83 1012.6
20260505220501 50 17 7.0 13.0 0.00 0.00 0.00 82 1012.5
20260505215459 50 14 7.0 14.0 0.00 0.00 0.00 82 1012.5
20260505214438 50 5 8.0 14.0 0.00 0.00 0.00 81 1012.4
20260505213418 51 24 7.0 11.0 0.00 0.00 0.00 81 1012.4
20260505212343 51 17 7.0 17.0 0.00 0.00 0.00 81 1012.4
20260505211322 51 32 7.0 17.0 0.00 0.00 0.00 80 1012.4
20260505210305 52 38 8.0 16.0 0.00 0.00 0.00 80 1012.3
20260505205324 52 45 10.0 16.0 0.00 0.00 0.00 80 1012.4
20260505204333 52 42 11.0 14.0 0.00 0.00 0.00 79 1012.3
20260505203327 53 58 8.0 14.0 0.00 0.00 0.00 78 1012.3
20260505201224 53 51 4.0 9.0 0.00 0.00 0.00 78 1012.3
20260505195100 54 59 7.0 10.0 0.00 0.00 0.00 76 1012.0
20260505194048 54 70 6.0 11.0 0.00 0.00 0.00 76 1011.8
20260505193021 54 62 7.0 11.0 0.00 0.00 0.00 76 1011.7
20260505192011 54 62 6.0 10.0 0.00 0.00 0.00 77 1011.6
20260505190952 54 101 5.0 10.0 0.00 0.00 0.00 77 1011.4
20260505190007 54 78 6.0 10.0 0.00 0.00 0.00 77 1011.2
20260505183835 54 75 9.0 11.0 0.00 0.00 0.00 75 1011.3
20260505182843 55 71 10.0 12.0 0.00 0.00 0.00 75 1011.3
20260505181822 55 83 9.0 14.0 0.00 0.00 0.00 74 1011.3
20260505180828 55 69 10.0 14.0 0.00 0.00 0.00 73 1011.3
20260505175849 55 84 10.0 12.0 0.00 0.00 0.00 72 1011.3
20260505174830 55 109 7.0 12.0 0.00 0.00 0.00 74 1011.3
20260505172616 54 108 7.0 13.0 0.00 0.00 0.00 78 1011.2
20260505170515 54 117 10.0 13.0 0.00 0.00 0.00 73 1011.3
20260505165458 55 106 9.0 14.0 0.00 0.00 0.00 72 1011.3
20260505164510 55 107 10.0 14.0 0.00 0.00 0.00 72 1011.4
20260505163447 55 95 8.0 13.0 0.00 0.00 0.00 71 1011.4
20260505162440 55 113 10.0 13.0 0.00 0.00 0.00 72 1011.0
20260505161453 55 98 9.0 13.0 0.00 0.00 0.00 71 1011.1
20260505160518 55 114 10.0 15.0 0.00 0.00 0.00 70 1011.2
20260505152521 55 115 9.0 14.0 0.00 0.00 0.00 68 1011.4
20260505140126 55 110 10.0 13.0 0.00 0.00 0.00 72 1011.7